www.pogodaiklimat.ru

Погода и климат >> Архив погоды >> Великобритания >> Вэлли


ПОГОДА в Вэлли

  • Прогноз погоды в Вэлли
  • Монитор погоды в Вэлли

АРХИВ ПОГОДЫ в Вэлли

Время (UTC), дата Ветер
(напр.,м/с)
 
Видим.   Явления Облачность Т
(С)
Тd
(С)
f
(%)
Тe
(С)
Тes
(С)
Комфортность P
(гПа)
Po
(гПа)
Тmin
(С)
Tmax
(С)
R
(мм)
R24
(мм)
S
(см)
01 13.09 С 3 28 км н/о +11.1 +8.6 85 +9 +9 1032.6 1031.2
02 13.09 С 2 30 км н/о +10.4 +8.1 86 +9 +9 1033.1 1031.7
03 13.09 С 4 27 км н/о +10.5 +7.7 83 +8 +8 1033.5 1032.0
04 13.09 С 3 25 км н/о +9.4 +7.5 88 +7 +7 1033.8 1032.3
05 13.09 В 1 23 км н/о +9.2 +7.2 87 +9 +9 1034.2 1032.8
06 13.09 СВ 1 45 км 3/1 500 м
[Cu hum Cs]
+8.5 +6.7 88 +9 +9 1035.1 1033.7 +8.4
07 13.09 СЗ 4 50 км 4/1 630 м
[Cu hum Cs]
+10.1 +9.1 94 +7 +8 1035.7 1034.3
08 13.09 С 1 45 км 4/1 600 м
[Cu hum Cs]
+12.4 +10.3 87 +12 +14 1036.2 1034.8
09 13.09 С 3 45 км 6/1 570 м
[Cu hum Cs]
+14.1 +9.5 74 +13 +16 1036.8 1035.4
10 13.09 С 3 45 км 8/3 660 м
[Cu hum Cs]
+14.8 +9.3 70 +14 +17 1037.0 1035.6
11 13.09 ЮЗ 2 50 км 8/1 660 м
[Cu hum Cs]
+16.0 +8.8 62 +16 +23 1037.2 1035.8
12 13.09 СЗ 3 45 км 9/1 660 м
[Cu Sc Cs]
+14.7 +9.6 71 +14 +19 1037.5 1036.1
13 13.09 С 2 45 км 9/1 700 м
[Cu hum Cs]
+15.4 +7.7 60 +15 +22 1037.3 1035.9
14 13.09 СЗ 3 30 км н/о +15.7 +8.7 63 +15 +15 1037.5 1036.1
15 13.09 С 4 45 км 5/1 720 м
[Cu hum Ci sp]
+15.9 +8.2 60 +15 +18 1037.2 1035.8
16 13.09 С 3 45 км 3/1 700 м
[Cu hum Ci fib]
+15.7 +7.6 59 +15 +18 1036.7 1035.3
17 13.09 СЗ 3 28 км н/о +15.7 +8.1 61 +15 +15 1036.7 1035.3
18 13.09 СЗ 3 27 км н/о +14.7 +8.5 66 +14 +14 1037.0 1035.6 +16.3
19 13.09 С 2 28 км н/о +13.1 +8.5 74 +12 +12 1037.1 1035.7
20 13.09 В 3 22 км н/о +11.0 +8.1 82 +9 +9 1036.8 1035.4
21 13.09 СВ 2 21 км н/о +9.8 +7.4 85 +8 +8 1036.8 1035.4
22 13.09 СВ 2 22 км н/о +9.5 +7.5 87 +8 +8 1036.6 1035.2
23 13.09 В 2 23 км н/о +9.2 +7.3 88 +7 +7 1036.2 1034.7
00 14.09 СВ 2 20 км н/о +8.6 +7.2 91 +7 +7 1036.0 1034.6
01 14.09 В 2 25 км н/о +8.0 +6.8 92 +6 +6 1035.8 1034.4
02 14.09 В 2 27 км н/о +7.5 +6.0 90 +6 +6 1035.3 1033.9
03 14.09 В 1 25 км н/о +7.7 +6.5 92 +7 +7 1034.5 1033.0
04 14.09 В 2 30 км н/о +7.8 +6.6 92 +6 +6 1034.1 1032.7
05 14.09 ЮВ 1 26 км н/о +8.2 +7.3 94 +7 +7 1033.2 1031.8
06 14.09 ЮВ 2 30 км н/о +8.8 +7.9 94 +7 +7 1032.7 1031.2 +7.1
07 14.09 Ю 7 29 км н/о +13.8 +10.5 80 +11 +11 1032.6 1031.2
08 14.09 Ю 8 24 км н/о +14.9 +11.1 78 +13 +13 1032.6 1031.2
09 14.09 Ю 7 15 км н/о +15.9 +12.1 78 +14 +14 1032.4 1031.0
10 14.09 Ю 9 29 км н/о +16.9 +11.3 70 +15 +15 1032.2 1030.8
11 14.09 Ю 10 30 км н/о +17.0 +11.5 70 +15 +15 1031.5 1030.1
12 14.09 Ю 9 26 км н/о +16.8 +12.1 74 +15 +15 1031.2 1029.8
13 14.09 Ю 9 23 км н/о +17.6 +13.3 76 +16 +16 1030.4 1029.0
14 14.09 Ю 9 16 км н/о +17.6 +13.2 75 +16 +16 1029.8 1028.4
15 14.09 Ю 9 17 км н/о +17.9 +13.6 76 +17 +17 1028.8 1027.4
16 14.09 Ю 9 19 км н/о +16.4 +13.3 82 +15 +15 1028.3 1026.9
17 14.09 Ю 10
{14}
18 км н/о +16.4 +12.8 79 +15 +15 1027.3 1026.0
18 14.09 Ю 9 17 км н/о +15.9 +12.8 82 +14 +14 1027.5 1026.1 +18.3
19 14.09 Ю 11
{14}
13 км н/о +15.4 +13.0 86 +13 +13 1026.7 1025.3
20 14.09 Ю 10
{13}
11 км н/о +15.1 +13.0 87 +13 +13 1027.0 1025.6
21 14.09 Ю 10
{14}
10 км дым н/о +15.1 +13.4 90 +13 +13 1026.5 1025.1
22 14.09 Ю 10
{13}
10 км дым н/о +15.1 +13.4 90 +13 +13 1026.3 1024.9
23 14.09 Ю 9 10 км н/о +15.2 +13.5 90 +13 +13 1025.9 1024.6
00 15.09 ЮЗ 9 9000 м дым н/о +15.6 +13.9 90 +14 +14 1025.4 1024.0
01 15.09 ЮЗ 9 9000 м дым н/о +15.7 +14.0 90 +14 +14 1025.0 1023.6
02 15.09 ЮЗ 7 11 км н/о +15.8 +13.9 88 +14 +14 1024.5 1023.2
03 15.09 ЮЗ 6 11 км н/о +15.8 +13.8 88 +14 +14 1024.2 1022.8
04 15.09 ЮЗ 5 19 км н/о +16.0 +13.6 86 +15 +15 1024.0 1022.6
05 15.09 ЮЗ 5 15 км н/о +15.9 +13.9 88 +15 +15 1024.0 1022.6
06 15.09 ЮЗ 5 13 км н/о +15.7 +14.0 90 +14 +14 1024.0 1022.6 +15.0
07 15.09 З 5 27 км н/о +16.2 +14.1 87 +15 +15 1024.2 1022.8
08 15.09 З 4 2300 м морось с дождем н/о +15.4 +14.4 94 +14 +14 1024.8 1023.4
09 15.09 С 5 4900 м в посл. час дождь н/о +13.4 +12.7 96 +11 +11 1025.1 1023.7
10 15.09 С 3 19 км н/о +14.1 +12.5 90 +13 +13 1025.0 1023.7
11 15.09 С 3 15 км н/о +15.0 +12.3 84 +14 +14 1025.1 1023.8
12 15.09 СВ 4 13 км н/о +14.3 +11.9 85 +13 +13 1024.7 1023.3 0.2
13 15.09 В 2 16 км н/о +14.7 +11.7 82 +15 +15 1024.5 1023.1
14 15.09 СВ 2 20 км н/о +14.9 +11.6 81 +15 +15 1024.2 1022.8
15 15.09 В 2 20 км н/о +14.9 +12.2 84 +15 +15 1023.8 1022.4
16 15.09 СВ 4 13 км н/о +13.7 +11.3 85 +12 +12 1023.3 1022.0
17 15.09 СВ 5 6000 м ливневой дождь н/о +12.3 +11.5 95 +10 +10 1023.2 1021.8
18 15.09 СВ 4 8000 м слаб. дождь н/о +12.1 +11.4 95 +10 +10 1022.8 1021.4 +16.2 3
19 15.09 СВ 3 8000 м дождь н/о +12.1 +11.6 97 +10 +10 1022.8 1021.4
20 15.09 В 3 14 км слаб. дождь н/о +12.3 +11.9 97 +11 +11 1022.4 1021.0
21 15.09 С 3 9000 м дождь н/о +12.7 +12.3 97 +11 +11 1022.8 1021.4
22 15.09 СВ 2 10 км слаб. морось н/о +12.7 +12.4 98 +12 +12 1022.6 1021.2
23 15.09 СВ 3 9000 м слаб. морось н/о +13.0 +12.7 98 +12 +12 1022.6 1021.2
00 16.09 СВ 3 2400 м сильн. морось н/о +13.0 +12.7 98 +12 +12 1022.6 1021.2 6
01 16.09 СВ 3 3200 м морось н/о +13.0 +12.7 98 +12 +12 1022.4 1021.0
02 16.09 В 3 3900 м слаб. морось н/о +12.9 +12.6 98 +12 +12 1022.1 1020.7
03 16.09 СВ 3 2900 м в посл. час морось н/о +13.1 +12.8 98 +12 +12 1021.8 1020.5
04 16.09 СВ 3 4400 м в посл. час дождь н/о +12.9 +12.6 98 +11 +11 1021.5 1020.1
05 16.09 СВ 4 24 км н/о +12.5 +12.3 99 +10 +10 1021.4 1020.0
06 16.09 СВ 4 20 км {дождь} 10/10 120 м
[St]
+12.4 +12.1 98 +10 +10 1021.7 1020.3 +12.0 7
07 16.09 СВ 4 25 км 9/9 270 м
[Sc Ci sp]
+12.7 +12.1 96 +11 +11 1022.0 1020.6
08 16.09 СВ 4 35 км 9/9 120 м
[Sc]
+13.4 +11.9 91 +12 +12 1022.7 1021.3
09 16.09 СВ 5 35 км 9/9 240 м
[Cu Sc]
+13.6 +12.2 91 +12 +12 1023.2 1021.8
10 16.09 СВ 4 40 км 9/9 360 м
[Cu Sc]
+14.2 +11.8 85 +13 +13 1023.5 1022.1
11 16.09 СВ 6 45 км 9/9 540 м
[Cu Sc]
+15.0 +10.8 76 +13 +14 1023.9 1022.5
12 16.09 С 5 50 км 9/9 570 м
[Cu Sc]
+15.2 +10.6 74 +14 +14 1024.2 1022.9
13 16.09 СВ 4 50 км 8/8 600 м
[Cu Sc]
+15.6 +9.1 65 +15 +16 1024.1 1022.7
14 16.09 С 5 50 км 9/9 660 м
[Cu Sc Cs]
+15.7 +9.2 65 +15 +15 1024.4 1023.0
15 16.09 С 4 50 км 8/8 660 м
[Cu Sc]
+15.5 +8.5 63 +15 +15 1024.1 1022.7
16 16.09 С 5 50 км 9/9 750 м
[Sc]
+15.0 +9.2 68 +14 +14 1024.5 1023.1
17 16.09 С 5 50 км 8/8 750 м
[Sc]
+14.4 +9.3 71 +13 +13 1024.5 1023.1
18 16.09 С 3 45 км н/о +14.0 +9.0 72 +13 +13 1024.9 1023.5 +16.2
19 16.09 С 2 50 км н/о +12.7 +8.7 77 +12 +12 1025.2 1023.8
20 16.09 С 2 45 км н/о +11.1 +8.6 85 +10 +10 1025.6 1024.2
21 16.09 СВ 2 25 км н/о +9.4 +7.5 88 +8 +8 1025.5 1024.1
22 16.09 СВ 2 28 км н/о +8.9 +7.5 91 +7 +7 1025.7 1024.3
23 16.09 СВ 2 26 км н/о +8.9 +7.7 92 +7 +7 1025.9 1024.5
00 17.09 С 1 30 км н/о +8.9 +7.7 92 +9 +9 1025.9 1024.4
01 17.09 штиль 0 40 км н/о +9.3 +7.6 89 +8 +8 1025.8 1024.4
02 17.09 СВ 2 23 км н/о +9.9 +8.5 91 +9 +9 1025.8 1024.4
03 17.09 С 3 35 км н/о +10.1 +8.3 89 +8 +8 1025.9 1024.5
04 17.09 С 2 35 км н/о +10.2 +7.7 84 +9 +9 1025.8 1024.4
05 17.09 С 2 35 км н/о +9.5 +7.5 87 +8 +8 1026.1 1024.7
06 17.09 С 1 50 км 4/4 930 м
[Sc Ac trans Cs]
+9.1 +7.1 87 +8 +8 1026.5 1025.1 +7.9
07 17.09 С 2 50 км 1/1 800 м
[Sc Ci sp]
+9.9 +7.6 86 +8 +9 1026.9 1025.5
08 17.09 С 3 50 км 1/1 800 м
[Sc Ci sp]
+12.8 +9.4 80 +11 +12 1027.2 1025.8
09 17.09 С 5 45 км 1/1 750 м
[Sc Cs]
+14.1 +8.2 68 +13 +14 1027.5 1026.1
10 17.09 С 5 45 км 3/3 750 м
[Cu Sc]
+14.7 +7.2 61 +13 +15 1028.0 1026.6
11 17.09 С 4 45 км 1/1 800 м
[Cu hum As trans Cc]
+15.3 +8.8 65 +14 +19 1027.9 1026.5
12 17.09 СЗ 6 45 км 3/3 720 м
[Sc diur, vesp Ci fib]
+14.9 +8.4 65 +13 +16 1028.1 1026.7
13 17.09 СЗ 6 45 км 1/1 700 м
[Cu Sc]
+14.8 +9.1 69 +13 +16 1028.1 1026.7
14 17.09 С 5 45 км 1/1 800 м
[Cu Sc]
+15.6 +8.4 62 +14 +17 1028.1 1026.8
15 17.09 СЗ 6 45 км 1/1 800 м
[Cu hum Ci fib]
+16.2 +8.1 59 +15 +17 1028.3 1027.0
16 17.09 С 5 40 км 1/1 870 м
[Cu hum Ci fib]
+15.5 +8.2 62 +14 +16 1028.3 1026.9
17 17.09 С 5 45 км 1/1 870 м
[Cu hum]
+14.9 +7.9 63 +14 +14 1028.1 1026.7
18 17.09 С 3 40 км ясно +14.2 +8.6 69 +14 +14 1028.2 1026.8 +16.4
19 17.09 С 2 27 км н/о +12.3 +8.5 78 +11 +11 1028.6 1027.2
20 17.09 СВ 2 18 км н/о +11.6 +8.3 80 +10 +10 1028.9 1027.5
21 17.09 С 3 9000 м дым н/о +11.2 +8.3 82 +10 +10 1029.4 1028.0
22 17.09 СВ 2 18 км н/о +9.2 +6.7 84 +8 +8 1029.4 1028.0
23 17.09 В 2 17 км н/о +9.3 +7.5 89 +8 +8 1029.6 1028.2
00 18.09 В 3 18 км н/о +8.8 +7.2 90 +6 +6 1029.4 1028.0
01 18.09 В 1 20 км н/о +8.2 +6.5 89 +7 +7 1029.4 1028.0
02 18.09 С 1 21 км н/о +8.1 +6.8 91 +7 +7 1029.4 1028.0
03 18.09 С 2 23 км н/о +7.4 +5.9 90 +6 +6 1029.4 1028.0
04 18.09 В 1 23 км н/о +6.7 +5.2 90 +6 +6 1029.4 1028.0
05 18.09 В 1 19 км н/о +7.0 +5.7 91 +6 +6 1029.6 1028.1
06 18.09 В 2 30 км 1/0
[Ci fib]
+7.7 +6.7 93 +6 +6 1029.5 1028.1 +6.3
07 18.09 В 2 30 км 1/0
[As trans Ci fib]
+7.6 +6.5 93 +6 +6 1030.0 1028.6
08 18.09 В 2 30 км 1/0
[As trans Ci fib]
+11.6 +9.7 88 +11 +12 1030.5 1029.0
09 18.09 С 1 35 км 1/0 2000 м
[As trans Ci fib]
+14.4 +10.3 76 +16 +20 1030.8 1029.4
10 18.09 СВ 1 35 км 1/1 750 м
[Cu hum As trans Ci fib]
+15.2 +8.3 63 +16 +22 1030.9 1029.5
11 18.09 З 3 35 км 1/1 750 м
[Sc diur, vesp Ci fib]
+16.6 +10.8 69 +17 +22 1031.0 1029.6
12 18.09 ЮЗ 4 35 км 1/1 800 м
[Cu Sc Ci fib]
+16.8 +10.8 68 +16 +22 1031.0 1029.6
13 18.09 С 3 35 км 1/1 800 м
[Cu hum Ci fib]
+16.4 +10.0 66 +16 +23 1031.0 1029.6
14 18.09 СЗ 4 35 км 1/1 900 м
[Cu hum Ci fib]
+17.0 +9.6 62 +17 +21 1030.8 1029.4
15 18.09 С 3 40 км 1/1 870 м
[Cu hum Ci fib]
+16.9 +9.2 60 +17 +20 1030.6 1029.2
16 18.09 СЗ 3 40 км 1/0
[Ci fib]
+16.8 +8.8 59 +17 +19 1030.4 1029.0
17 18.09 С 3 40 км 1/0
[Ci fib]
+16.3 +9.8 65 +16 +17 1030.3 1028.9
18 18.09 С 2 40 км 1/0
[Ci fib]
+15.3 +9.8 70 +15 +15 1030.3 1028.9 +17.5
19 18.09 СВ 2 23 км н/о +14.2 +10.3 77 +14 +14 1030.6 1029.2
20 18.09 В 2 22 км н/о +12.1 +9.6 85 +11 +11 1031.0 1029.6
21 18.09 СВ 2 17 км н/о +11.2 +9.1 87 +10 +10 1031.3 1029.9
22 18.09 СВ 2 18 км н/о +10.6 +8.8 89 +10 +10 1031.4 1030.0
23 18.09 СВ 2 17 км н/о +10.6 +9.0 90 +9 +9 1031.4 1030.0
00 19.09 С 1 19 км н/о +9.6 +8.0 90 +9 +9 1031.3 1029.9
01 19.09 С 2 18 км н/о +9.6 +8.1 90 +8 +8 1031.2 1029.8
02 19.09 С 2 17 км н/о +8.6 +6.9 89 +7 +7 1031.0 1029.5
03 19.09 С 2 17 км н/о +9.0 +7.3 89 +8 +8 1030.9 1029.5
04 19.09 СВ 2 15 км н/о +8.7 +7.5 92 +7 +7 1030.8 1029.3
05 19.09 СВ 1 24 км н/о +8.6 +7.5 93 +8 +8 1030.8 1029.4
06 19.09 СВ 2 1500 м туман на расстоянии 1/0
[Ci sp]
+8.8 +8.2 96 +7 +7 1031.0 1029.6 +8.2
07 19.09 В 1 2000 м в посл. час туман 1/0
[Ci sp]
+9.6 +9.1 97 +9 +9 1031.3 1029.8
08 19.09 В 1 40 км 1/0
[Ci sp]
+12.4 +11.9 97 +13 +15 1031.5 1030.1
09 19.09 ЮВ 2 45 км {туман} 1/0
[Ci sp]
+15.6 +12.7 83 +16 +19 1031.7 1030.3
10 19.09 В 2 45 км 3/1 750 м
[Cu hum Ci sp]
+17.4 +10.0 62 +18 +23 1031.9 1030.5
11 19.09 Ю 3 45 км 3/1 750 м
[Cu hum Ci fib]
+16.5 +10.4 67 +16 +22 1031.8 1030.4
12 19.09 ЮЗ 3 45 км {туман} 3/1 750 м
[Cu hum Ci fib]
+17.3 +10.4 64 +17 +23 1031.7 1030.3
13 19.09 ЮЗ 3 45 км 3/1 750 м
[Cu hum Ci fib]
+17.1 +10.2 64 +17 +22 1031.3 1029.9
14 19.09 ЮЗ 3 40 км 3/1 900 м
[Cu hum Ci fib]
+18.1 +10.0 59 +18 +23 1030.9 1029.5
15 19.09 СЗ 2 40 км 1/1 840 м
[Cu hum Ci fib]
+18.1 +11.5 65 +19 +23 1030.5 1029.1
16 19.09 СЗ 3 40 км 1/1 750 м
[Cu hum Ci fib]
+17.8 +12.1 69 +18 +20 1030.1 1028.7
17 19.09 С 3 30 км н/о +17.4 +11.7 69 +18 +18 1029.9 1028.5
18 19.09 СВ 3 35 км н/о +16.4 +10.7 69 +16 +16 1029.7 1028.3 +18.9
19 19.09 СВ 3 20 км н/о +14.4 +10.9 79 +14 +14 1029.7 1028.3
20 19.09 В 3 14 км н/о +12.7 +10.8 88 +11 +11 1029.5 1028.1
21 19.09 В 3 13 км н/о +11.7 +10.0 89 +10 +10 1029.5 1028.1
22 19.09 СВ 2 11 км н/о +11.7 +10.4 92 +11 +11 1029.4 1028.0
23 19.09 СВ 1 11 км н/о +11.1 +9.8 92 +11 +11 1029.1 1027.6
00 20.09 В 1 24 км н/о +11.0 +9.5 90 +11 +11 1028.7 1027.2
01 20.09 В 1 19 км н/о +10.7 +9.1 90 +10 +10 1028.4 1027.0

 

Местоположение метеостанции Вэлли (Великобритания): широта 53.25 долгота -4.53 высота над уровнем моря 10 м.

В архиве по умолчанию представлена погода в Вэлли за последнюю неделю. Архивные данные за месяц целиком и за предыдущие месяцы, начиная с января 2011 года, Вы можете получить, выбрав интересующий диапазон дат из раскрывающегося списка и нажав кнопку "Ввод!".


*Определитесь, кто Вы:
робот инопланетянин человек

Внимание! Время в таблицах - всемирное. Для получения местного времени необходимо прибавить поправку, которая равна 0 ч.

Смотрите также архив погоды в соседних городах и на ближайших метеорологических станциях:

Погода в Моне (Великобритания) (11 км)
Погода в Кейпл Кериг (Великобритания) (43 км)
Погода в Абердароне (Великобритания) (54 км)
Погода в Риле (Великобритания) (69 км)
Погода в Бала (Великобритания) (75 км)
Погода на Озере Вирнви (Великобритания) (90 км)
Погода на Острове Мэн (Великобритания) (93 км)
Погода в Кросби (Великобритания) (101 км)
Погода в Гавардене (Великобритания) (104 км)
Погода в Троскоеде (Великобритания) (107 км)

Пояснения к столбцам:

Ветер - указаны скорость ветра в м/с - средняя за 10 мин, порывы в срок и между сроками (в фигурных скобках) и направление, откуда дует ветер: С - северный, СВ - северо-восточный, В - восточный, ЮВ - юго-восточный, Ю - южный, ЮЗ - юго-западный, З - западный, СЗ - северо-западный.
Видимость - горизонтальная дальность видимости в метрах или километрах. При видимости от 1 до 10 км при отсутствии осадков обычно наблюдается дымка, при ухудшении видимости до 1 км и менее - туман. В сухую погоду видимость может ухудшаться дымом, пылью или мглою.
Явления - указаны атмосферные явления, наблюдавшиеся в срок или в последний час перед сроком; фигурными скобками обозначены явления, наблюдавшиеся между сроками (за 1-3 часа до срока); квадратными скобками обозначены град или гололедные отложения с указанием их диаметра в мм.
Облачность - указаны через наклонную черту общая и нижняя облачность в баллах и высота нижней границы облаков в метрах; квадратными скобками обозначены формы облаков: Ci - перистые, Cs - перисто-слоистые, Cc - перисто-кучевые, Ac - высококучевые, As - высокослоистые, Sc - слоисто-кучевые, Ns - слоисто-дождевые, Cu - кучевые, Cb - кучево-дождевые. Подробнее классификацию облаков см. в Атласе облаков (PDF).
T - Температура воздуха - температура, измеренная на высоте 2 м над землей.
Td - Температура точки росы - температура, при понижении до которой содержащийся в воздухе водяной пар достигнет насыщения.
f - Относительная влажность воздуха - влажноcть воздуха, измеренная на высоте 2 м над землей.
Te - Эффективная температура - температура, которую ощущает одетый по сезону человек в тени. Характеристика душности погоды. При расчете учитывается влияние влажности воздуха и скорости ветра на теплоощущения человека.
Tes - Эффективная температура на солнце - температура, которую ощущает человек, с поправкой на солнечный нагрев. Характеристика знойности погоды. Зависит от высоты солнца над горизонтом, облачности и скорости ветра. Ночью, в пасмурную погоду, а также при ветре 12 м/с и более поправка равна нулю.
P - Атмосферное давление - приведенное к уровню моря атмосферное давление.
Po - Атмосферное давление - измеренное на уровне метеостанции атмосферное давление.
Tmin - Минимальная температура - минимум температуры воздуха на высоте 2 м над землей.
Tmax - Максимальная температура - максимум температуры воздуха на высоте 2 м над землей.
R - Количество осадков - Количество выпавших осадков за период времени, мм. При наведении курсора мыши на число - период времени, за который выпало указанное количество осадков.
R24 - Количество осадков - Количество выпавших осадков за 24 часа, мм.
S - Снежный покров - Высота снежного покрова, см. При наведении курсора мыши на число - состояние снежного покрова и степень покрытия местности в баллах.